TimeCST,TemperatureF,Dew PointF,Humidity,Sea Level PressureIn,VisibilityMPH,Wind Direction,Wind SpeedMPH,Gust SpeedMPH,PrecipitationIn,Events,Conditions,WindDirDegrees,DateUTC
12:15 AM,46.4,30.2,53,30.14,10.0,East,4.6,-,N/A,,Clear,100,2012-11-08 06:15:00
12:35 AM,46.4,30.2,53,30.14,10.0,East,4.6,-,N/A,,Clear,100,2012-11-08 06:35:00
12:55 AM,46.4,30.2,53,30.14,10.0,East,3.5,-,N/A,,Clear,100,2012-11-08 06:55:00
1:15 AM,44.6,32.0,61,30.14,10.0,East,4.6,-,N/A,,Clear,80,2012-11-08 07:15:00
1:35 AM,42.8,32.0,66,30.15,10.0,ENE,4.6,-,N/A,,Clear,70,2012-11-08 07:35:00
1:55 AM,42.8,32.0,66,30.15,10.0,East,11.5,-,N/A,,Clear,80,2012-11-08 07:55:00
2:15 AM,44.6,32.0,61,30.15,10.0,East,11.5,-,N/A,,Clear,80,2012-11-08 08:15:00
2:35 AM,42.8,32.0,66,30.15,10.0,East,10.4,-,N/A,,Clear,80,2012-11-08 08:35:00
2:55 AM,42.8,32.0,66,30.15,10.0,East,10.4,-,N/A,,Clear,80,2012-11-08 08:55:00
3:15 AM,42.8,32.0,66,30.15,10.0,East,10.4,-,N/A,,Clear,90,2012-11-08 09:15:00
3:35 AM,42.8,32.0,66,30.15,10.0,East,8.1,-,N/A,,Clear,90,2012-11-08 09:35:00
3:55 AM,42.8,33.8,70,30.16,10.0,ENE,8.1,-,N/A,,Clear,70,2012-11-08 09:55:00
4:15 AM,41.0,33.8,76,30.16,10.0,East,9.2,-,N/A,,Clear,80,2012-11-08 10:15:00
4:35 AM,41.0,33.8,76,30.17,10.0,East,6.9,-,N/A,,Clear,80,2012-11-08 10:35:00
4:55 AM,41.0,33.8,76,30.17,10.0,East,9.2,-,N/A,,Clear,80,2012-11-08 10:55:00
5:15 AM,41.0,33.8,76,30.17,10.0,East,8.1,-,N/A,,Clear,90,2012-11-08 11:15:00
5:35 AM,41.0,33.8,76,30.17,10.0,East,8.1,-,N/A,,Clear,90,2012-11-08 11:35:00
5:55 AM,41.0,33.8,76,30.18,10.0,East,6.9,-,N/A,,Clear,90,2012-11-08 11:55:00
6:15 AM,41.0,33.8,76,30.17,10.0,East,9.2,-,N/A,,Clear,90,2012-11-08 12:15:00
6:35 AM,41.0,33.8,76,30.17,10.0,East,10.4,-,N/A,,Clear,80,2012-11-08 12:35:00
6:55 AM,41.0,33.8,76,30.19,10.0,East,6.9,-,N/A,,Clear,90,2012-11-08 12:55:00
7:15 AM,41.0,33.8,76,30.20,10.0,East,6.9,-,N/A,,Clear,90,2012-11-08 13:15:00
7:35 AM,42.8,35.6,76,30.20,10.0,East,8.1,-,N/A,,Clear,90,2012-11-08 13:35:00
7:55 AM,44.6,35.6,71,30.21,10.0,East,6.9,-,N/A,,Clear,100,2012-11-08 13:55:00
8:15 AM,46.4,35.6,66,30.22,10.0,ESE,11.5,-,N/A,,Clear,110,2012-11-08 14:15:00
8:35 AM,48.2,35.6,62,30.23,10.0,SE,6.9,-,N/A,,Clear,130,2012-11-08 14:35:00
8:55 AM,50.0,35.6,58,30.23,10.0,ESE,8.1,-,N/A,,Clear,120,2012-11-08 14:55:00
9:15 AM,51.8,35.6,54,30.23,10.0,ESE,11.5,-,N/A,,Clear,120,2012-11-08 15:15:00
9:35 AM,53.6,33.8,47,30.22,10.0,SE,10.4,-,N/A,,Clear,130,2012-11-08 15:35:00
9:55 AM,55.4,33.8,44,30.21,10.0,SE,9.2,-,N/A,,Clear,130,2012-11-08 15:55:00
10:15 AM,57.2,33.8,41,30.20,10.0,SE,9.2,-,N/A,,Clear,130,2012-11-08 16:15:00
10:35 AM,59.0,33.8,39,30.19,10.0,ESE,10.4,-,N/A,,Clear,120,2012-11-08 16:35:00
11:15 AM,62.6,33.8,34,30.17,10.0,SE,8.1,-,N/A,,Clear,140,2012-11-08 17:15:00
11:35 AM,64.4,33.8,32,30.17,10.0,SE,10.4,-,N/A,,Clear,130,2012-11-08 17:35:00
11:55 AM,64.4,33.8,32,30.15,10.0,ESE,9.2,17.3,N/A,,Clear,120,2012-11-08 17:55:00
12:15 PM,66.2,33.8,30,30.13,10.0,SE,8.1,-,N/A,,Clear,130,2012-11-08 18:15:00
12:35 PM,68.0,35.6,30,30.12,10.0,SE,12.7,17.3,N/A,,Clear,140,2012-11-08 18:35:00
12:55 PM,69.8,35.6,28,30.10,10.0,SSE,11.5,16.1,N/A,,Clear,150,2012-11-08 18:55:00
1:15 PM,69.8,35.6,28,30.09,10.0,SE,13.8,17.3,N/A,,Clear,130,2012-11-08 19:15:00
1:35 PM,71.6,37.4,29,30.08,10.0,SSE,10.4,17.3,N/A,,Clear,150,2012-11-08 19:35:00
1:55 PM,71.6,37.4,29,30.07,10.0,SSE,11.5,17.3,N/A,,Clear,150,2012-11-08 19:55:00
2:15 PM,71.6,37.4,29,30.07,10.0,SSE,10.4,17.3,N/A,,Clear,150,2012-11-08 20:15:00
2:35 PM,71.6,39.2,31,30.06,10.0,SE,15.0,-,N/A,,Clear,130,2012-11-08 20:35:00
2:55 PM,71.6,39.2,31,30.05,10.0,SE,15.0,-,N/A,,Clear,140,2012-11-08 20:55:00
3:15 PM,71.6,39.2,31,30.04,10.0,SE,11.5,-,N/A,,Clear,130,2012-11-08 21:15:00
3:35 PM,71.6,39.2,31,30.05,10.0,SSE,10.4,13.8,N/A,,Clear,160,2012-11-08 21:35:00
3:55 PM,71.6,39.2,31,30.05,10.0,SE,9.2,-,N/A,,Clear,140,2012-11-08 21:55:00
4:15 PM,71.6,39.2,31,30.05,10.0,ESE,10.4,-,N/A,,Clear,120,2012-11-08 22:15:00
4:35 PM,69.8,39.2,33,30.04,10.0,SE,12.7,17.3,N/A,,Clear,130,2012-11-08 22:35:00
4:55 PM,68.0,39.2,35,30.04,10.0,SE,9.2,-,N/A,,Clear,140,2012-11-08 22:55:00
5:15 PM,66.2,39.2,37,30.04,10.0,SE,8.1,11.5,N/A,,Clear,130,2012-11-08 23:15:00
5:35 PM,64.4,39.2,40,30.05,10.0,SE,8.1,-,N/A,,Clear,130,2012-11-08 23:35:00
5:55 PM,62.6,41.0,45,30.05,10.0,SE,9.2,-,N/A,,Clear,130,2012-11-08 23:55:00
6:15 PM,62.6,41.0,45,30.06,10.0,SE,9.2,-,N/A,,Clear,130,2012-11-09 00:15:00
6:35 PM,60.8,41.0,48,30.07,10.0,SE,9.2,-,N/A,,Clear,130,2012-11-09 00:35:00
6:55 PM,60.8,41.0,48,30.07,10.0,SE,9.2,-,N/A,,Clear,130,2012-11-09 00:55:00
7:15 PM,60.8,41.0,48,30.07,10.0,SE,10.4,17.3,N/A,,Clear,140,2012-11-09 01:15:00
7:35 PM,60.8,41.0,48,30.07,10.0,SE,11.5,-,N/A,,Clear,130,2012-11-09 01:35:00
7:55 PM,60.8,41.0,48,30.07,10.0,SE,10.4,-,N/A,,Clear,140,2012-11-09 01:55:00
8:15 PM,60.8,41.0,48,30.07,10.0,SE,11.5,-,N/A,,Clear,130,2012-11-09 02:15:00
8:35 PM,60.8,41.0,48,30.07,10.0,SE,11.5,-,N/A,,Clear,130,2012-11-09 02:35:00
8:55 PM,60.8,41.0,48,30.07,10.0,SE,12.7,16.1,N/A,,Clear,130,2012-11-09 02:55:00
9:15 PM,60.8,41.0,48,30.07,10.0,SE,10.4,16.1,N/A,,Clear,130,2012-11-09 03:15:00
9:35 PM,59.0,41.0,51,30.07,10.0,ESE,9.2,-,N/A,,Clear,120,2012-11-09 03:35:00
9:55 PM,59.0,41.0,51,30.07,10.0,SE,11.5,-,N/A,,Clear,130,2012-11-09 03:55:00
10:15 PM,59.0,41.0,51,30.07,10.0,SE,8.1,-,N/A,,Clear,130,2012-11-09 04:15:00
10:35 PM,57.2,41.0,55,30.07,10.0,SE,8.1,-,N/A,,Clear,130,2012-11-09 04:35:00
10:55 PM,55.4,41.0,58,30.07,10.0,East,4.6,-,N/A,,Clear,90,2012-11-09 04:55:00
11:15 PM,53.6,41.0,62,30.07,10.0,East,6.9,-,N/A,,Clear,100,2012-11-09 05:15:00
11:35 PM,51.8,41.0,67,30.07,10.0,East,6.9,-,N/A,,Clear,100,2012-11-09 05:35:00
11:55 PM,53.6,41.0,62,30.07,10.0,East,4.6,-,N/A,,Clear,80,2012-11-09 05:55:00